Regional Weather Roundup
Issued by NWS

Home | Current Version | Previous Version | Text Only | Print | Product List | Glossary On
Versions: 1 2 3 4 5 6 7 8 9 10 11 12 13 14 15 16 17 18 19 20 21 22 23 24 25 26 27 28 29 30 31 32 33 34 35 36 37 38 39 40 41 42 43 44 45 46 47 48 49 50
000
ASUS42 KFFC 292203
RWRGA
WEATHER ROUNDUP FOR GEORGIA
NATIONAL WEATHER SERVICE PEACHTREE CITY GA
600 PM EDT WED JUL 29 2015

NOTE: "FAIR" INDICATES FEW OR NO CLOUDS BELOW 12,000 FEET WITH NO
SIGNIFICANT WEATHER AND/OR OBSTRUCTIONS TO VISIBILITY.

* = USE WITH CAUTION. THE STATIONS MARKED WITH AN ASTERISK MAY NOT
REPORT WEATHER SUCH AS PRECIPITATION, FOG, OR THUNDER AND ARE NOT
QUALITY CONTROLLED BY NWS.

THE REMARK "TC" DENOTES TEMPERATURE READING IN DEGREES CELSIUS.

GAZ001>058-292300-
NORTH GEORGIA

CITY           SKY/WX    TMP DP  RH WIND       PRES   REMARKS
ATLANTA        PTSUNNY   88  72  58 CALM      29.95F HX  94
ATHENS         PTSUNNY   87  73  62 SE10      29.94R HX  94
CHAMBLEE       MOSUNNY   95  70  44 N6        29.95S HX 101
PEACHTREE CITY PTSUNNY   88  72  58 NE6       29.95F HX  94
ROME           SUNNY     95  71  45 VRB7      29.93R HX 102
WEST ATLANTA   MOSUNNY   91  75  59 CALM      29.94R HX 101
GAINESVILLE    PTSUNNY   80  71  74 NW5       29.99S
CARTERSVILLE   SUNNY     95  72  47 N8        29.94S HX 103


CITY           SKY/WX    TMP DP  RH WIND       PRES   REMARKS
DALTON*        MOSUNNY   90  73  58 N6        29.95S HX  98
LAWRENCEVILLE* MOSUNNY   90  66  45 N6        29.95R HX  92
MARIETTA       PTSUNNY   94  73  51 N6        29.95F HX 102
KENNESAW*      MOSUNNY   93  73  52 NW3       29.97S HX 102
BLAIRSVILLE*     N/A     86  48  26 CALM      30.02S
$$

GAZ059>098-102>109-292300-
CENTRAL GEORGIA

CITY           SKY/WX    TMP DP  RH WIND       PRES   REMARKS
AUGUSTA-BUSH   MOSUNNY   94  73  50 W7        29.91R HX 103
AUGUSTA-DANIEL MOSUNNY   90  74  59 W3        29.94R HX  99
COLUMBUS       PTSUNNY   91  69  48 NW21G32   29.90S HX  96
MACON          CLOUDY    87  73  62 SE5       29.91S HX  94
ROBINS AFB     CLOUDY    85  73  66 VRB5      29.91R HX  92


CITY           SKY/WX    TMP DP  RH WIND       PRES   REMARKS
LAGRANGE*      PTSUNNY   88  78  72 NW9       29.95S HX 102
SYLVANIA*      MOSUNNY   95  73  49 CALM      29.91R HX 105
MILLEDGEVILLE* CLOUDY    79  75  89 CALM      29.94R
$$

GAZ099>101-110>166-292300-
SOUTH GEORGIA

CITY           SKY/WX    TMP DP  RH WIND       PRES   REMARKS
SAVANNAH       PTSUNNY   90  73  57 E8        29.90F HX  98
VALDOSTA       HVY RAIN  85  78  80 VRB7      29.92S HX  96
ALMA           MOSUNNY   93  75  55 CALM      29.89F HX 104
ST SIMONS      SUNNY     85  75  72 E9        29.91F HX  93
FT STEWART     MOSUNNY   93  73  52 E9        29.88S HX 102
ALBANY         PTSUNNY  100  70  37 NW8       29.89F HX 107
HUNTER AFB     MOSUNNY   89  79  73 E7        29.88F HX 104
MOODY AFB      MOSUNNY   90  77  65 S8        29.90F HX 103
BRUNSWICK      SUNNY     90  68  48 NE9       29.92S HX  93


CITY           SKY/WX    TMP DP  RH WIND       PRES   REMARKS
BAINBRIDGE*    CLOUDY    99  73  44 CALM      29.89R HX 109
MOULTRIE*      MOSUNNY   86  73  66 S5        29.93R HX  93
VIDALIA*       HVY RAIN  86  77  74 E5        29.91F HX  97
WAYCROSS*      MOSUNNY   95  79  60 E5        29.89F HX 113
DOUGLAS*       SUNNY     95  72  46 SE5       29.91S HX 103
$$


USA.gov is the U.S. government's official web portal to all federal, state and local government web resources and services.